Orangeburg, SC

2:34 PM EDT on May 26, 2018 (GMT -0400)
Orangeburg Municipal

Weather History for KOGB - August, 2014

Change the Weather History Date:

Thursday, August 21, 2014

  Actual Average Record
Temperature  
Mean Temperature 85 °F 80 °F  
Max Temperature 97 °F 89 °F 102 °F (1983)
Min Temperature 72 °F 70 °F 59 °F (1998)
Degree Days  
Heating Degree Days 0 0  
Month to date heating degree days 0 0  
Since 1 June heating degree days 0 1  
Since 1 July heating degree days 0 0  
Cooling Degree Days 20 15  
Month to date cooling degree days 319 333  
Year to date cooling degree days 1622 1555  
Since 1 June cooling degree days 1267 1252  
Growing Degree Days 34 (Base 50)    
Moisture  
Dew Point 68 °F    
Average Humidity 63    
Maximum Humidity 94    
Minimum Humidity 30    
Precipitation  
Precipitation 0.00 in 0.15 in 1.25 in (1963)
Month to date precipitation 3.90 3.69  
Year to date precipitation 35.02 31.72  
Sea Level Pressure  
Sea Level Pressure 30.05 in    
Wind  
Wind Speed 4 mph (NNW)    
Max Wind Speed 12 mph    
Max Gust Speed 14 mph    
Visibility 10 miles    
Events      
T = Trace of Precipitation, MM = Missing Value Source: NWS Daily Summary

Daily Weather History Graph

Daily Weather History Graph

Search for Another Location

Airport or City:

Astronomy

Aug. 21, 2014 Rise Set
Actual Time 6:50 AM EDT 8:02 PM EDT
Civil Twilight 6:24 AM EDT 8:28 PM EDT
Nautical Twilight 5:53 AM EDT 8:59 PM EDT
Astronomical Twilight 5:21 AM EDT 9:31 PM EDT
Moon 3:23 AM EDT (8/21) 5:26 PM EDT (8/21)
Length of Visible Light 14h 04m
Length of Day
13h 12m
Waning Crescent, 13% of the Moon is Illuminated
Aug 21
Waning Crescent
Aug 25
New
Sep 2
First Quarter
Sep 8
Full
Sep 15
Last Quarter

Hourly Weather History & Observations

Time (EDT) Temp. Heat Index Dew Point Humidity Pressure Visibility Wind Dir Wind Speed Gust Speed Precip Events Conditions
12:53 AM 77.0 °F - 69.1 °F 76% 30.03 in 10.0 mi SW 4.6 mph - N/A   Clear
1:53 AM 77.0 °F - 69.1 °F 76% 30.02 in 10.0 mi Calm Calm - N/A   Clear
2:53 AM 73.9 °F - 69.1 °F 85% 30.01 in 10.0 mi Calm Calm - N/A   Clear
3:53 AM 73.9 °F - 69.1 °F 85% 30.00 in 10.0 mi South 3.5 mph - N/A   Clear
4:53 AM 73.0 °F - 69.1 °F 87% 30.00 in 10.0 mi SW 4.6 mph - N/A   Clear
5:53 AM 72.0 °F - 69.1 °F 91% 30.03 in 9.0 mi WSW 3.5 mph - N/A   Clear
6:53 AM 73.0 °F - 68.0 °F 84% 30.04 in 10.0 mi NNW 3.5 mph - N/A   Clear
7:53 AM 75.0 °F - 69.1 °F 82% 30.06 in 5.0 mi NW 3.5 mph - N/A   Haze
8:53 AM 80.1 °F 82.9 °F 69.1 °F 69% 30.08 in 10.0 mi NNW 3.5 mph - N/A   Clear
9:53 AM 84.9 °F 88.2 °F 68.0 °F 57% 30.09 in 10.0 mi NNW 6.9 mph - N/A   Clear
10:53 AM 88.0 °F 91.4 °F 68.0 °F 51% 30.09 in 10.0 mi NNW 4.6 mph - N/A   Clear
11:53 AM 89.1 °F 93.7 °F 69.1 °F 52% 30.09 in 10.0 mi Variable 4.6 mph - N/A   Clear
12:53 PM 91.9 °F 95.9 °F 68.0 °F 45% 30.07 in 10.0 mi NW 5.8 mph - N/A   Clear
1:53 PM 95.0 °F 96.0 °F 63.0 °F 34% 30.06 in 10.0 mi North 9.2 mph - N/A   Clear
2:53 PM 96.1 °F 96.4 °F 61.0 °F 31% 30.05 in 10.0 mi North 4.6 mph - N/A   Clear
3:53 PM 97.0 °F 97.4 °F 61.0 °F 30% 30.03 in 10.0 mi North 8.1 mph - N/A   Clear
4:53 PM 96.1 °F 96.9 °F 62.1 °F 32% 30.03 in 10.0 mi NE 11.5 mph - N/A   Clear
5:53 PM 96.1 °F 98.3 °F 64.0 °F 35% 30.03 in 10.0 mi Variable 6.9 mph - N/A   Clear
6:53 PM 93.9 °F 97.0 °F 66.0 °F 40% 30.04 in 10.0 mi NE 4.6 mph - N/A   Clear
7:53 PM 88.0 °F 92.9 °F 70.0 °F 55% 30.04 in 10.0 mi ENE 3.5 mph - N/A   Clear
8:53 PM 82.0 °F 86.3 °F 71.1 °F 69% 30.04 in 10.0 mi Calm Calm - N/A   Clear
9:53 PM 81.0 °F 85.2 °F 72.0 °F 74% 30.06 in 10.0 mi Calm Calm - N/A   Clear
10:53 PM 78.1 °F - 71.1 °F 79% 30.07 in 10.0 mi Calm Calm - N/A   Clear
11:53 PM 75.9 °F - 73.0 °F 91% 30.06 in 10.0 mi SW 3.5 mph - N/A   Clear